Regional Weather Roundup
Issued by NWS

Home | Current Version | Previous Version | Graphics & Text | Print | Product List | Glossary On
Versions: 1 2 3 4 5 6 7 8 9 10 11 12 13 14 15 16 17 18 19 20 21 22 23 24 25 26 27 28 29 30 31 32 33 34 35 36 37 38 39 40 41 42 43 44 45 46 47 48 49 50
000
ASUS45 KBOI 151010
RWRID
WEATHER ROUNDUP FOR IDAHO
NATIONAL WEATHER SERVICE BOISE ID
400 AM MDT MON SEP 15 2014

NOTE: "FAIR" INDICATES FEW OR NO CLOUDS BELOW 12000 FEET
WITH NO SIGNIFICANT WEATHER AND/OR OBSTRUCTIONS TO VISIBILITY

IDZ012-014-151100-
SOUTHWEST IDAHO


CITY           SKY/WX    TMP DP  RH WIND       PRES   REMARKS
BOISE          CLEAR     62  32  32 SE7       29.98S
CALDWELL       CLEAR     50  36  57 CALM      29.99S
MOUNTAIN HOME  CLEAR     53  35  51 NE5       30.00R
$$

IDZ016-017-151100-
SOUTHCENTRAL IDAHO


CITY           SKY/WX    TMP DP  RH WIND       PRES   REMARKS
BURLEY         CLEAR     49  39  68 CALM      30.06S
JEROME         CLEAR     55  35  47 E5        30.06R
TWIN FALLS     CLEAR     62  32  32 S12       30.06R
$$

IDZ019>023-151100-
SOUTHEAST IDAHO


CITY           SKY/WX    TMP DP  RH WIND       PRES   REMARKS
IDAHO FALLS    PTCLDY    44  35  70 W3        30.12R
POCATELLO      CLEAR     53  35  50 E6        30.10S
REXBURG        PTCLDY    47  35  63 VRB3      30.13R
$$

IDZ006-010-011-018-031-032-151100-
CENTRAL IDAHO MOUNTAINS


CITY           SKY/WX    TMP DP  RH WIND       PRES   REMARKS
MCCALL         CLEAR     44  29  55 CALM      30.12R
HAILEY         PTCLDY    52  32  46 NW13      30.16S
STANLEY          N/A     34  23  64 CALM      30.24R
SALMON         PTCLDY    39  28  65 CALM      30.13R
CHALLIS        CLEAR     46  25  43 SE3       30.16R
$$

IDZ002-004-006-007-026-151100-
NORTHERN IDAHO


CITY           SKY/WX    TMP DP  RH WIND       PRES   REMARKS
LEWISTON       CLEAR     56  32  40 E5        29.98R
LOWELL           N/A     45  42  89 N5        30.08R
COEUR D`ALENE  CLEAR     52  39  62 E9        30.02S
MULLAN PASS    CLEAR     51  25  36 SE10      30.15S
$$



USA.gov is the U.S. government's official web portal to all federal, state and local government web resources and services.